Temperature
16 16 16 17 17 17 18 20 21 21 21 20 20 20 19 17 17 15 14 14 14 14 14 14 14 14 14 14 14 14 14 14 14 14 14 14 14 14 14 14 14 14 15 15 14 14 14 14 14
16 16 16 17 17 17 19 20 20 20 20 19 19 19 18 16 15 14 14 13 14 14 14 14 14 14 14 14 14 14 14 14 14 14 14 14 14 14 14 14 14 14 14 14 14 14 14 14 14
16 16 16 17 17 18 19 20 19 19 19 19 18 18 17 15 14 13 13 13 13 13 14 14 14 14 14 14 14 14 14 14 14 14 14 14 14 14 14 14 14 14 14 14 14 14 14 14 14
15 16 17 17 17 19 19 19 19 18 18 19 18 16 15 14 13 13 13 13 13 13 13 14 14 14 14 14 14 14 14 14 14 14 14 13 13 13 13 13 13 13 14 14 14 14 14 14 14
15 16 16 16 17 18 19 19 19 19 18 18 18 16 14 13 13 13 13 13 13 13 13 13 13 13 13 13 13 13 13 13 13 13 13 13 13 13 13 13 13 13 13 13 13 13 13 13 13
15 17 16 16 17 18 19 19 19 18 18 17 17 16 13 13 13 13 13 13 13 13 13 13 13 13 13 13 13 13 13 13 13 13 13 13 13 13 13 13 13 13 13 13 13 13 13 13 13
15 15 16 17 17 18 18 18 18 17 17 17 17 15 13 12 12 12 12 12 12 12 13 13 13 13 13 13 13 13 13 13 13 13 13 13 13 13 12 12 12 13 13 13 13 13 13 13 13
15 15 16 16 17 17 18 17 17 17 16 15 15 15 12 12 12 12 12 12 12 12 12 12 12 12 12 12 12 12 12 12 12 13 13 12 12 12 12 12 12 12 12 12 12 12 12 12 12
14 14 14 16 16 16 17 16 16 15 15 14 13 13 12 12 12 11 11 11 11 11 12 12 12 12 12 12 12 12 12 12 12 12 12 12 12 12 12 12 12 12 12 12 12 12 12 12 12
14 13 14 16 16 16 15 15 15 14 14 13 12 12 12 12 11 11 11 11 11 11 11 11 12 12 12 12 12 12 12 12 12 12 12 12 12 12 12 11 11 11 11 11 11 11 11 11 11
14 13 14 15 14 15 14 14 14 14 13 13 12 12 11 11 11 11 11 11 11 11 11 11 11 11 11 11 11 11 11 11 11 11 11 11 11 11 11 11 11 11 11 11 11 11 11 11 11
13 13 14 14 13 13 13 13 13 13 12 12 12 12 11 11 11 10 10 10 10 11 11 11 11 11 11 11 11 11 11 11 11 11 11 11 11 11 11 11 11 11 11 11 11 10 10 11 10
13 13 13 12 12 12 12 12 12 12 12 12 12 11 11 11 10 10 10 10 10 10 10 10 10 10 10 10 10 10 10 10 10 10 10 10 10 10 10 10 10 11 10 10 10 10 10 10 10
13 12 12 12 12 12 12 12 11 11 11 11 11 11 10 10 10 10 10 10 10 10 10 10 10 10 10 10 10 10 10 10 10 10 10 10 10 10 10 10 10 10 10 10 10 10 10 10 10
12 11 11 12 12 12 11 10 11 12 11 11 10 10 10 10 10 9 10 9 9 9 10 10 10 10 10 10 10 9 9 9 9 9 9 9 9 9 9 9 9 9 9 10 10 9 9 9 9
12 11 11 12 12 11 10 10 12 12 11 10 10 10 9 9 9 9 9 9 9 9 9 9 9 9 9 9 9 9 9 9 9 9 9 9 9 9 9 9 9 9 9 9 9 9 9 9 9
11 10 11 11 12 11 10 10 11 11 11 10 10 9 9 9 9 9 9 8 8 8 9 9 9 9 9 9 9 9 9 9 9 9 9 9 9 9 9 9 9 9 8 8 8 8 9 9 8
10 11 12 11 11 11 9 9 10 10 10 9 9 9 8 8 8 8 8 8 8 8 8 8 8 8 8 8 8 8 8 8 8 8 8 8 8 8 8 8 8 8 8 8 8 8 8 8 8
11 11 10 11 11 10 9 9 10 10 9 9 9 8 8 8 8 8 8 8 8 8 8 8 8 8 8 8 8 8 8 8 8 8 8 8 8 8 8 8 8 8 8 8 8 8 8 8 8
10 10 10 10 10 10 9 9 9 9 9 9 8 8 8 7 7 7 7 7 7 7 7 7 7 7 7 7 7 7 7 7 7 7 7 7 7 7 7 7 7 7 7 7 7 7 7 7 7
9 9 9 9 9 9 8 8 9 9 9 9 8 8 8 7 7 7 7 7 7 7 7 7 7 7 7 7 7 7 7 7 7 7 7 7 7 7 7 7 7 7 7 7 7 7 7 7 7
8 9 9 8 7 7 8 7 9 9 8 8 8 8 7 7 7 6 6 6 6 6 6 6 6 6 6 6 6 6 6 6 6 6 6 6 6 6 6 6 6 6 6 6 6 6 6 6 6
8 8 8 7 7 6 7 6 7 9 8 7 7 7 7 6 6 6 6 6 6 6 6 6 5 5 5 5 5 5 6 6 6 5 5 5 5 5 5 5 5 5 5 6 6 5 6 5 5
7 7 7 6 6 6 7 7 7 8 8 8 7 7 6 6 6 5 5 5 5 5 5 5 5 5 5 5 5 5 5 5 5 5 5 5 5 5 5 5 5 5 5 5 5 5 5 5 5
7 6 6 6 6 6 8 7 7 8 8 7 6 6 5 5 5 4 4 4 5 5 5 5 5 5 4 4 4 4 4 5 5 5 5 4 4 4 4 4 4 4 4 4 4 4 4 4 4
6 6 6 6 6 7 7 6 7 7 7 7 7 6 5 4 4 4 4 4 4 4 4 4 4 4 4 4 4 4 4 4 4 4 4 4 4 4 4 4 4 4 4 4 4 4 4 4 4
6 6 6 5 5 5 6 8 7 6 6 5 5 5 4 4 3 3 3 3 3 3 3 4 3 3 3 3 3 3 3 3 4 4 4 4 4 4 4 3 3 3 3 3 3 3 3 3 3
5 6 5 5 5 5 7 7 7 6 5 4 4 4 4 3 3 3 2 2 3 3 3 3 3 3 3 3 3 3 3 3 3 3 3 3 3 3 3 3 3 3 3 3 3 3 3 2 3
4 4 5 5 5 5 5 7 7 6 5 4 3 3 3 2 2 2 2 2 2 2 2 2 2 2 2 2 2 2 2 2 2 2 2 2 2 2 3 3 3 2 2 2 2 2 2 2 2
4 5 4 4 4 4 4 5 5 4 4 3 3 3 2 2 2 1 1 1 1 1 1 1 2 2 2 2 1 2 2 2 2 2 2 2 2 2 2 2 2 2 2 2 2 2 1 1 1
Wind_Speed
12 11 6 3 3 4 6 3 1 2 2 4 6 5 5 5 4 6 3 5 6 7 8 7 7 8 8 8 8 9 9 10 10 11 11 11 11 12 12 11 12 12 12 12 13 14 15 15 16
10 7 4 3 4 5 5 4 2 2 4 4 4 4 4 4 6 7 4 5 6 7 8 8 8 8 8 8 8 8 9 9 9 10 10 10 11 11 11 11 12 12 12 13 13 14 15 15 15
8 6 3 3 4 6 2 3 4 5 4 2 3 4 3 4 5 4 3 4 5 7 8 8 8 8 8 8 8 7 8 8 9 9 9 10 10 11 11 12 12 13 14 14 14 14 14 14 14
4 3 3 3 7 5 2 1 5 6 2 1 4 4 4 6 4 4 4 5 5 6 8 8 8 8 8 8 8 7 7 7 8 9 9 9 10 10 11 11 12 13 14 14 14 14 14 13 13
3 3 4 6 9 4 1 1 2 4 4 2 3 3 4 4 6 6 5 4 5 5 8 8 8 7 7 8 8 7 7 7 8 8 8 9 9 10 10 11 12 13 13 13 13 13 13 12 12
3 3 4 7 8 4 2 1 1 1 2 2 1 3 3 5 5 5 5 4 6 6 7 7 7 7 7 7 7 7 7 7 7 8 8 8 9 10 10 11 12 12 13 12 12 12 12 12 11
3 2 5 6 5 4 2 2 1 1 1 1 0 3 4 4 4 5 5 5 6 7 7 6 6 6 7 7 6 6 7 6 7 7 8 8 9 10 10 11 11 12 12 12 12 11 11 10 10
3 2 5 6 5 3 2 2 0 1 1 2 3 1 3 4 4 5 5 4 5 5 6 5 5 5 6 6 6 6 6 6 7 7 7 8 9 9 10 11 11 11 11 11 11 10 10 10 9
3 2 4 4 4 1 2 2 2 2 2 2 3 3 5 7 5 5 4 4 4 4 4 4 4 4 4 5 5 5 6 6 6 6 7 7 7 8 9 10 11 10 10 11 10 10 9 8 7
2 3 4 3 3 2 1 1 1 2 1 2 1 3 6 6 5 5 4 3 3 2 2 3 3 3 3 3 4 5 5 5 5 5 6 6 7 7 8 9 10 10 10 10 10 9 8 7 6
2 3 3 3 4 2 1 2 1 3 4 3 3 4 6 5 4 4 4 3 3 2 1 2 2 2 3 2 3 3 4 4 5 5 6 7 7 7 7 7 8 9 9 8 8 7 6 6 6
3 3 3 3 4 3 2 2 3 4 2 1 1 4 4 5 5 5 4 4 3 3 2 2 1 2 2 3 2 2 3 4 4 5 7 6 5 5 5 5 6 6 6 6 5 5 7 7 7
6 4 2 2 2 3 3 4 4 5 2 0 3 4 4 4 4 3 3 3 3 2 2 2 1 2 2 2 2 2 2 3 5 5 6 6 5 4 4 4 4 5 5 4 4 5 6 6 6
2 2 3 3 4 4 4 5 5 6 4 4 5 5 5 5 4 3 3 4 3 3 2 2 2 1 1 1 1 2 3 3 5 5 5 6 6 5 4 4 4 4 4 4 5 5 5 5 5
2 3 5 6 6 4 3 7 8 6 5 5 5 4 4 4 4 3 3 3 3 3 3 3 2 1 1 1 1 2 3 4 4 4 6 6 6 5 5 4 3 3 4 5 5 5 5 4 4
5 5 5 5 5 4 4 8 5 5 6 6 5 4 4 3 3 3 2 2 2 2 2 3 2 2 1 2 1 1 3 4 4 5 5 6 6 6 5 3 3 4 4 4 4 3 2 3 2
5 5 6 4 5 4 6 8 3 3 5 5 5 5 4 4 3 3 3 3 2 2 2 2 2 2 2 2 2 2 2 3 4 4 5 5 6 6 5 4 4 4 3 3 3 2 2 2 2
4 6 6 5 4 5 8 9 5 5 5 5 5 5 5 4 4 3 3 3 3 2 2 2 2 2 1 2 2 2 1 2 3 4 4 5 5 5 5 4 4 4 3 2 2 2 2 2 2
6 7 8 6 1 4 9 11 9 6 6 7 6 6 6 5 4 3 3 3 3 2 2 2 2 2 2 2 2 2 2 2 2 3 5 5 5 5 5 3 3 3 3 2 3 2 3 2 2
8 9 9 5 2 4 8 12 10 8 8 8 8 7 6 5 4 4 4 4 3 3 2 2 2 2 2 2 2 2 2 2 3 3 4 5 5 5 4 4 3 3 2 3 3 3 2 2 2
9 8 7 6 6 6 6 8 8 7 7 6 6 5 5 5 5 4 4 4 3 3 3 2 2 2 2 2 2 2 1 2 2 2 3 3 5 5 4 4 4 3 3 3 3 3 2 3 1
7 3 4 5 4 4 3 6 6 5 5 5 6 5 5 4 4 4 4 4 3 3 2 2 2 2 3 3 3 3 3 3 3 3 3 4 5 5 5 5 4 4 3 3 3 2 1 3 3
3 2 4 5 5 6 6 6 7 4 5 6 6 5 4 3 3 3 3 3 3 3 3 2 2 3 3 3 3 3 2 3 3 4 4 4 4 5 5 6 5 4 3 3 3 2 2 2 3
2 2 3 3 3 6 8 7 6 4 5 3 4 4 4 4 3 2 2 2 2 3 3 3 3 2 3 3 3 3 3 4 4 4 5 4 3 3 4 5 5 4 4 4 4 3 3 3 3
3 1 1 2 4 7 4 6 6 3 2 3 4 4 4 4 3 2 2 2 2 2 2 2 3 2 3 3 3 3 3 4 6 6 6 5 4 4 5 4 4 4 4 4 4 3 3 3 3
5 4 3 4 4 3 2 7 4 2 3 3 3 4 4 3 2 2 1 1 1 2 2 1 2 2 3 3 3 4 4 3 4 5 5 5 5 5 5 5 4 5 5 5 5 4 4 3 3
4 5 2 2 3 4 5 4 2 3 3 3 3 3 2 2 2 2 1 0 1 1 1 2 2 2 3 3 3 4 4 3 4 4 4 5 4 4 5 5 5 4 4 5 5 4 4 4 4
3 1 2 4 3 5 6 6 4 3 2 2 2 1 1 2 2 1 0 0 0 0 0 1 1 2 3 3 4 4 4 4 4 4 4 5 5 5 6 6 6 5 5 4 4 4 4 4 4
4 4 5 4 4 4 5 4 1 4 3 3 1 1 1 1 1 1 1 1 1 1 1 1 1 2 2 3 3 4 4 3 4 4 4 4 4 5 6 6 6 6 6 6 5 5 5 5 5
4 5 5 4 5 4 4 5 2 5 4 3 2 2 1 1 1 1 1 1 1 1 1 1 2 2 3 3 3 3 4 3 3 4 4 4 4 5 5 6 6 6 6 6 6 7 6 7 7
Wind_Direction
302 276 258 254 241 228 233 229 224 88 56 34 36 33 48 32 36 103 119 67 78 94 103 112 109 106 102 99 101 101 97 92 87 83 80 77 74 71 70 69 69 68 70 78 83 83 81 86 87
297 284 264 242 236 232 225 192 189 78 74 64 41 38 63 59 67 96 86 63 75 95 105 108 105 105 104 101 102 104 102 97 93 89 84 81 78 75 72 71 70 68 74 82 87 85 84 84 88
280 271 257 239 235 240 235 127 111 81 74 88 77 33 43 61 73 91 84 81 78 89 100 106 106 104 104 102 102 104 107 102 98 94 89 85 82 80 77 75 72 71 77 86 89 87 85 82 83
274 239 243 244 241 250 264 85 110 118 92 67 116 97 80 46 47 73 89 84 88 87 100 108 111 108 108 108 104 102 105 107 104 99 95 90 88 85 84 80 78 75 77 83 87 88 87 83 79
244 247 221 229 242 235 276 75 120 140 152 173 139 130 104 74 70 80 87 86 87 83 93 114 113 111 108 112 112 109 103 107 108 106 103 98 95 92 89 86 83 80 80 82 85 88 89 84 80
248 249 232 226 230 212 187 109 171 184 136 135 156 136 117 113 95 91 87 80 76 77 86 108 119 113 107 108 110 114 108 105 108 108 107 102 99 96 93 92 89 87 84 85 86 87 88 84 81
269 248 245 252 238 221 191 129 192 164 143 165 273 133 135 132 111 102 94 82 75 81 83 91 107 115 112 110 109 113 112 109 108 110 108 105 104 103 100 95 92 91 89 86 87 89 89 86 82
297 283 251 254 253 234 149 135 79 359 89 26 4 118 150 130 108 96 91 86 81 79 75 82 84 99 107 111 113 113 117 117 113 111 109 109 108 107 104 98 95 93 90 88 87 90 91 88 85
282 251 248 256 265 256 118 141 74 31 68 38 23 25 98 118 117 108 102 89 81 74 75 71 71 77 101 117 122 121 125 125 121 115 106 103 104 106 106 104 101 96 92 90 89 89 91 86 85
234 229 243 305 331 352 55 33 99 156 180 207 149 97 113 126 136 141 139 131 114 91 72 69 63 64 85 115 124 124 125 125 117 109 105 100 98 103 107 107 106 101 95 93 91 91 87 78 74
224 235 275 328 352 352 319 311 288 225 235 229 212 162 145 151 155 162 163 159 153 132 97 70 63 78 74 83 110 108 110 114 106 95 100 105 100 100 101 103 100 100 97 93 94 85 75 72 69
244 262 288 317 343 320 257 253 260 255 256 334 119 147 161 166 176 180 179 174 159 149 143 101 61 79 71 76 103 110 110 110 107 100 99 99 95 94 99 103 103 98 95 93 90 79 75 70 65
235 248 264 303 321 294 272 254 259 256 239 182 145 163 178 181 185 178 175 172 164 161 146 128 81 83 80 74 91 108 106 118 118 112 112 107 105 104 96 100 103 102 103 99 90 85 82 75 68
235 245 260 253 251 257 249 253 250 242 198 194 192 192 188 188 186 185 189 180 175 173 168 144 123 83 89 95 72 110 117 119 124 120 119 115 114 113 110 100 91 98 102 99 96 89 86 81 81
252 250 250 230 220 217 236 255 231 225 200 207 203 196 197 193 182 190 186 174 173 173 164 151 155 137 133 126 92 110 116 122 124 125 130 122 115 116 114 114 101 95 110 110 104 94 92 86 79
224 231 239 214 199 183 198 253 232 189 192 209 204 196 196 197 186 184 168 146 144 149 155 158 157 156 149 126 120 98 118 121 124 128 131 127 125 123 116 117 114 102 107 118 118 111 97 88 77
214 238 241 231 197 190 215 255 229 178 194 210 213 204 200 194 202 195 169 153 152 157 163 158 152 161 162 139 131 113 114 121 126 128 129 131 132 132 125 121 121 120 120 119 120 110 111 106 91
238 248 251 244 197 215 234 251 245 220 221 225 219 210 208 206 210 191 173 157 152 144 154 154 152 149 146 134 133 110 106 122 124 125 125 132 134 132 125 125 129 133 131 120 117 119 106 109 105
281 272 274 275 239 245 248 258 256 229 223 233 229 216 210 214 206 172 159 157 148 143 154 161 154 155 148 159 167 166 186 166 146 125 130 137 137 138 130 127 140 143 136 138 132 118 122 115 105
267 270 272 286 281 266 268 269 264 235 223 225 224 218 210 209 203 181 166 161 164 173 176 166 173 169 172 186 184 171 170 166 153 132 134 143 142 143 147 137 148 150 137 131 128 126 129 139 140
253 256 270 286 309 270 272 278 247 234 221 221 217 211 208 201 200 188 175 175 171 177 186 191 182 175 175 168 156 136 130 142 146 160 164 156 154 150 150 144 147 150 145 153 152 156 153 167 204
255 275 276 275 285 276 228 280 258 222 217 218 212 205 203 195 190 184 175 178 181 185 178 186 179 172 175 167 168 168 183 184 183 180 177 171 169 162 158 155 159 161 158 162 175 169 170 169 187
255 307 274 264 258 272 241 249 269 203 222 221 210 196 177 170 172 170 169 177 176 163 162 180 172 169 172 176 179 181 194 190 166 166 172 176 172 172 171 167 168 171 172 171 173 177 173 182 192
243 278 266 256 249 256 226 216 268 213 211 196 192 173 156 150 143 144 147 146 155 153 155 166 171 175 169 172 185 183 196 196 173 173 182 185 181 180 183 184 179 180 180 181 185 190 189 193 198
214 181 259 236 224 246 200 214 248 202 148 160 159 155 149 142 143 147 147 153 152 153 166 168 174 182 179 180 196 197 202 206 193 188 188 187 187 192 197 198 194 191 192 189 185 188 199 202 205
213 201 201 232 245 277 221 230 240 141 113 105 111 118 118 117 115 99 100 135 159 163 156 168 199 200 195 191 202 207 205 212 208 198 191 194 202 202 197 203 203 203 197 197 194 197 204 207 209
200 215 228 281 279 269 248 244 247 151 104 99 105 102 109 115 108 97 79 108 127 149 177 199 213 223 216 210 206 210 208 220 217 204 197 199 203 203 195 199 202 203 200 200 198 203 206 205 208
264 225 176 204 233 251 256 239 229 184 177 138 118 108 82 94 92 99 105 86 138 195 193 181 210 234 241 228 221 224 215 218 222 208 205 204 204 201 196 199 201 200 201 204 203 209 210 209 215
190 208 211 221 234 233 261 257 77 136 138 142 131 110 114 97 111 118 80 65 71 36 13 345 280 254 252 253 244 234 220 215 221 214 214 210 208 203 200 201 199 201 202 203 205 214 210 212 219
215 212 193 203 235 229 254 268 48 92 100 105 111 86 86 89 68 69 71 63 40 13 1 330 308 291 278 265 256 247 230 210 221 223 216 213 208 209 205 202 202 206 207 207 210 216 215 213 216
Height
1503 1505 1507 1509 1511 1510 1508 1500 1495 1497 1499 1502 1503 1504 1508 1512 1516 1526 1526 1524 1524 1525 1526 1527 1528 1530 1531 1532 1533 1534 1535 1536 1536 1537 1537 1538 1538 1538 1538 1538 1538 1537 1536 1536 1538 1540 1541 1543 1544
1503 1505 1508 1508 1509 1512 1505 1497 1497 1499 1501 1504 1505 1507 1510 1515 1518 1521 1522 1523 1524 1525 1526 1527 1528 1530 1531 1532 1533 1534 1535 1536 1537 1537 1538 1538 1539 1539 1539 1539 1538 1536 1534 1534 1537 1541 1543 1544 1545
1503 1505 1508 1506 1506 1507 1502 1496 1498 1501 1503 1505 1508 1510 1513 1518 1519 1520 1522 1523 1524 1525 1526 1527 1528 1529 1531 1532 1533 1534 1535 1536 1537 1538 1539 1539 1539 1540 1540 1540 1540 1537 1535 1535 1539 1542 1544 1545 1547
1504 1506 1507 1507 1506 1500 1498 1497 1498 1502 1505 1506 1508 1513 1516 1519 1520 1520 1522 1523 1524 1525 1526 1527 1528 1529 1530 1532 1533 1534 1535 1536 1537 1538 1539 1540 1540 1540 1541 1541 1541 1540 1539 1540 1541 1543 1545 1547 1548
1504 1505 1506 1507 1503 1498 1497 1498 1499 1502 1505 1507 1509 1512 1517 1519 1519 1520 1521 1523 1524 1524 1525 1527 1528 1529 1530 1531 1533 1534 1535 1536 1537 1538 1539 1540 1540 1541 1541 1541 1542 1542 1542 1543 1543 1545 1547 1548 1549
1505 1503 1506 1506 1500 1497 1497 1499 1501 1502 1505 1507 1509 1512 1517 1518 1518 1520 1521 1522 1523 1524 1525 1526 1528 1529 1530 1531 1532 1534 1535 1536 1537 1538 1539 1540 1541 1541 1542 1542 1543 1543 1544 1544 1545 1546 1547 1549 1550
1504 1503 1503 1500 1498 1498 1498 1499 1502 1503 1505 1508 1509 1512 1515 1517 1517 1518 1520 1522 1522 1523 1524 1526 1527 1528 1530 1531 1532 1533 1534 1536 1537 1538 1539 1540 1541 1541 1542 1543 1543 1544 1544 1545 1546 1547 1548 1549 1551
1503 1503 1501 1500 1498 1498 1498 1500 1502 1504 1506 1508 1509 1511 1514 1516 1516 1517 1519 1521 1522 1523 1524 1525 1526 1527 1529 1530 1531 1532 1533 1535 1536 1537 1538 1539 1540 1541 1542 1543 1543 1544 1544 1545 1546 1547 1548 1550 1551
1503 1506 1504 1500 1498 1498 1499 1500 1503 1504 1506 1508 1510 1511 1512 1513 1514 1516 1518 1519 1521 1522 1523 1524 1525 1526 1527 1529 1530 1531 1533 1534 1535 1536 1538 1539 1539 1541 1541 1542 1543 1544 1544 1545 1546 1548 1549 1550 1551
1502 1505 1501 1499 1497 1498 1499 1501 1503 1505 1506 1508 1510 1511 1511 1512 1513 1515 1516 1517 1519 1520 1522 1523 1524 1525 1526 1527 1528 1530 1531 1533 1534 1535 1536 1537 1538 1540 1540 1541 1542 1543 1544 1545 1546 1548 1549 1550 1551
1500 1501 1499 1499 1499 1499 1501 1502 1503 1504 1506 1507 1508 1509 1509 1511 1512 1513 1515 1516 1517 1519 1520 1521 1522 1523 1524 1525 1527 1528 1529 1531 1533 1533 1535 1536 1537 1538 1539 1540 1541 1542 1543 1544 1546 1547 1549 1550 1551
1500 1500 1500 1500 1500 1501 1501 1502 1504 1504 1505 1505 1506 1507 1507 1509 1510 1512 1513 1514 1516 1517 1518 1520 1521 1522 1523 1524 1525 1526 1527 1529 1530 1532 1533 1534 1536 1536 1538 1539 1540 1541 1542 1544 1545 1546 1548 1549 1550
1499 1500 1500 1501 1501 1501 1502 1502 1503 1502 1503 1503 1504 1505 1506 1507 1508 1509 1511 1513 1514 1515 1516 1518 1519 1520 1521 1522 1523 1524 1526 1527 1529 1530 1532 1533 1534 1535 1536 1538 1539 1540 1542 1543 1544 1545 1546 1548 1549
1498 1499 1499 1500 1500 1500 1501 1501 1502 1499 1500 1501 1502 1503 1504 1505 1506 1507 1509 1510 1511 1512 1514 1515 1516 1517 1518 1519 1520 1522 1523 1525 1527 1528 1530 1531 1533 1534 1535 1536 1538 1539 1540 1542 1543 1544 1545 1547 1548
1498 1499 1499 1497 1497 1498 1500 1500 1497 1496 1497 1499 1500 1501 1502 1503 1504 1504 1505 1507 1508 1509 1511 1512 1514 1515 1516 1517 1518 1520 1521 1522 1524 1526 1528 1529 1531 1532 1533 1534 1536 1537 1539 1540 1541 1543 1544 1545 1546
1497 1499 1499 1494 1494 1496 1502 1499 1492 1493 1494 1496 1497 1498 1499 1500 1501 1502 1503 1504 1505 1506 1508 1510 1511 1512 1514 1515 1516 1517 1519 1520 1521 1523 1525 1527 1528 1530 1532 1533 1534 1535 1537 1538 1540 1541 1542 1543 1544
1497 1499 1496 1494 1492 1494 1497 1495 1491 1491 1492 1493 1495 1496 1496 1497 1498 1499 1500 1501 1502 1504 1505 1506 1508 1509 1510 1512 1513 1515 1516 1517 1519 1521 1522 1524 1526 1528 1529 1531 1532 1533 1535 1536 1538 1539 1540 1541 1542
1497 1495 1491 1491 1490 1493 1494 1492 1489 1490 1490 1491 1491 1492 1493 1494 1495 1496 1497 1498 1499 1501 1502 1503 1505 1506 1507 1509 1510 1511 1513 1514 1516 1518 1520 1521 1523 1525 1526 1528 1530 1531 1533 1534 1535 1537 1538 1539 1540
1492 1492 1492 1489 1489 1491 1491 1489 1486 1486 1487 1487 1488 1488 1489 1490 1492 1493 1494 1495 1496 1497 1499 1500 1501 1503 1504 1505 1507 1508 1510 1511 1513 1514 1516 1518 1520 1521 1523 1524 1527 1528 1530 1531 1533 1534 1535 1537 1538
1492 1493 1492 1489 1488 1490 1489 1486 1481 1480 1480 1481 1482 1483 1484 1486 1488 1489 1490 1492 1493 1494 1495 1496 1498 1500 1501 1502 1504 1506 1507 1508 1510 1512 1514 1515 1517 1519 1520 1521 1523 1525 1526 1528 1530 1531 1532 1533 1535
1492 1493 1492 1493 1491 1488 1490 1485 1477 1474 1474 1476 1478 1479 1480 1482 1484 1486 1487 1488 1489 1490 1492 1493 1495 1496 1498 1499 1501 1503 1504 1506 1507 1509 1511 1512 1514 1515 1517 1518 1520 1521 1523 1524 1526 1528 1529 1530 1532
1492 1490 1491 1493 1496 1495 1490 1493 1474 1471 1472 1473 1474 1475 1477 1479 1481 1482 1484 1485 1486 1487 1489 1490 1492 1493 1495 1496 1497 1498 1499 1501 1502 1505 1507 1509 1511 1512 1513 1515 1516 1518 1519 1521 1523 1524 1526 1527 1528
1491 1491 1492 1493 1495 1496 1490 1493 1476 1468 1471 1470 1471 1472 1473 1476 1478 1479 1480 1482 1483 1485 1486 1487 1488 1490 1491 1492 1494 1495 1496 1498 1500 1502 1504 1506 1507 1508 1510 1511 1513 1514 1516 1517 1519 1521 1522 1524 1525
1491 1492 1493 1494 1496 1497 1485 1488 1476 1468 1466 1466 1468 1469 1472 1474 1475 1477 1478 1479 1481 1482 1483 1484 1485 1486 1488 1489 1490 1492 1493 1494 1496 1497 1499 1501 1503 1504 1506 1507 1509 1511 1512 1513 1515 1517 1518 1520 1522
1491 1495 1498 1496 1496 1489 1476 1479 1473 1463 1462 1463 1466 1468 1470 1472 1473 1474 1475 1476 1477 1478 1480 1481 1482 1483 1484 1486 1487 1488 1490 1491 1492 1493 1495 1496 1498 1500 1501 1503 1504 1506 1508 1509 1511 1512 1514 1515 1517
1490 1491 1496 1496 1489 1481 1477 1477 1468 1462 1462 1462 1465 1467 1468 1470 1471 1472 1473 1473 1474 1475 1476 1478 1479 1479 1481 1482 1483 1485 1486 1487 1488 1489 1490 1492 1493 1495 1497 1499 1500 1502 1503 1505 1507 1508 1510 1511 1512
1488 1489 1488 1493 1489 1489 1477 1466 1464 1461 1462 1463 1465 1466 1467 1469 1470 1470 1471 1471 1471 1472 1473 1474 1475 1476 1477 1478 1480 1481 1482 1483 1484 1486 1487 1488 1489 1491 1492 1494 1495 1497 1499 1500 1502 1503 1505 1506 1508
1487 1486 1491 1493 1491 1486 1472 1465 1463 1463 1463 1463 1465 1466 1467 1468 1468 1469 1469 1469 1469 1470 1470 1471 1471 1472 1474 1475 1476 1477 1478 1479 1480 1481 1482 1483 1484 1486 1487 1489 1490 1492 1493 1495 1497 1498 1500 1501 1502
1487 1488 1486 1487 1485 1484 1478 1467 1457 1458 1459 1462 1464 1465 1466 1467 1467 1468 1467 1467 1467 1467 1467 1467 1468 1469 1469 1470 1472 1473 1473 1475 1475 1476 1477 1478 1480 1481 1482 1483 1485 1486 1488 1490 1491 1493 1494 1496 1497
1480 1481 1484 1488 1486 1482 1480 1472 1459 1459 1459 1461 1463 1464 1465 1466 1466 1466 1466 1465 1465 1465 1464 1464 1464 1465 1465 1466 1467 1468 1469 1470 1470 1471 1472 1474 1475 1476 1477 1478 1479 1481 1483 1484 1485 1487 1488 1490 1491